Cloud_Cover
100 100 100 100 100 38 66 84 82 96 90 100 100 41 72 100 100 100 100 100 100 100 100 100 100 100 100 100 100 100 100 100 100 100 93 99 100 100 6 5 4 10 6 41 5 5 4
100 100 100 100 100 86 12 97 93 100 98 66 98 88 95 100 100 100 100 100 100 100 100 100 100 100 100 100 100 100 100 100 100 100 100 100 100 93 94 5 6 4 74 53 31 5 1
100 100 94 100 92 100 100 69 89 100 98 32 39 5 6 5 6 13 83 100 100 100 100 100 100 100 100 100 100 100 100 98 36 70 95 96 100 94 100 99 100 43 17 78 99 5 2
100 100 100 100 100 100 100 100 100 90 95 52 71 11 6 5 5 5 5 5 8 100 100 100 100 100 100 100 100 100 100 100 100 98 61 6 93 72 47 62 79 27 5 38 98 9 3
100 100 100 100 100 100 100 100 100 93 66 14 5 30 5 60 5 5 5 5 10 61 80 94 100 100 100 100 100 86 100 100 64 84 45 5 5 5 5 5 5 14 2 4 49 100 71
100 100 100 100 100 100 100 96 100 90 11 50 15 5 83 95 84 77 10 42 81 58 76 74 72 100 100 100 33 5 5 20 73 56 51 36 5 3 6 16 5 5 5 5 5 98 99
100 100 100 100 100 100 100 71 98 35 48 23 5 6 5 68 93 21 100 84 100 54 42 13 24 95 88 6 55 100 74 5 5 5 36 64 5 5 5 5 6 8 19 7 78 100 63
100 100 100 100 100 100 100 100 100 41 7 5 5 6 100 100 83 99 83 100 99 66 26 5 29 75 95 98 48 11 12 44 20 50 47 67 34 69 63 79 16 5 5 6 29 6 31
100 100 100 100 100 100 100 100 86 10 13 21 5 99 50 70 100 89 19 29 76 96 30 42 47 5 70 85 90 74 22 61 55 82 96 93 50 84 55 5 5 5 5 2 4 4 4
100 100 100 100 100 99 100 100 100 100 58 68 34 13 45 37 54 59 30 56 15 71 93 42 40 7 9 7 14 100 96 74 98 96 87 78 86 33 99 98 32 5 5 4 4 2 0
100 100 100 100 100 100 63 100 100 100 51 5 5 8 93 33 6 94 28 24 11 68 12 100 100 100 99 99 69 83 96 98 97 76 92 99 100 99 97 70 5 5 4 0 0 0 0
100 100 100 100 100 100 5 5 12 11 100 73 9 6 5 5 5 9 96 99 67 11 16 86 96 81 100 96 77 52 80 83 90 50 7 18 6 5 5 5 5 5 0 0 1 4 4
100 100 100 100 100 64 52 36 5 5 5 36 76 5 5 5 5 4 17 92 86 96 68 74 97 91 93 98 95 15 15 9 4 9 12 5 2 2 1 0 0 0 0 2 2 2 2
100 100 100 100 100 99 77 99 100 18 5 6 3 5 2 5 5 5 5 5 6 97 94 72 6 33 12 9 5 5 5 5 4 0 0 0 0 0 0 0 0 0 0 0 5 15 5
100 100 100 100 100 100 87 96 100 86 5 4 4 0 0 0 3 2 0 0 4 5 5 5 5 5 2 4 2 0 0 0 0 0 0 0 0 0 0 0 0 0 0 0 1 2 17
100 100 100 100 100 100 76 81 75 76 91 88 5 0 1 2 1 2 1 0 2 3 3 2 4 0 0 0 0 0 0 0 0 0 0 0 0 0 0 0 0 0 0 0 33 20 18
100 100 100 100 100 100 100 100 8 6 70 16 5 0 2 5 5 4 2 1 4 4 2 3 0 0 0 0 0 0 0 0 0 0 0 0 0 0 0 0 0 0 0 1 3 2 11
100 100 100 100 100 100 100 100 93 97 25 8 5 5 6 76 28 16 5 0 0 0 0 1 2 0 0 0 0 0 0 0 0 0 0 0 0 0 0 0 0 0 0 2 70 10 84
100 100 100 100 100 100 80 100 6 8 28 100 81 7 5 25 42 6 5 0 0 0 0 0 0 0 0 0 0 0 0 0 0 0 0 0 0 0 0 0 28 20 5 47 99 100 11
100 100 100 100 100 100 81 100 100 95 2 5 26 78 49 16 56 26 3 0 0 0 0 0 0 0 0 0 0 0 0 0 0 0 0 0 0 0 0 0 0 0 0 1 26 69 53
100 84 100 100 100 100 100 58 84 30 6 0 17 100 100 7 88 4 0 0 0 0 0 0 0 0 0 0 0 0 0 0 0 0 0 0 1 0 0 0 0 0 0 0 0 0 3
100 100 100 100 100 100 100 88 80 27 5 8 22 100 98 95 30 1 2 3 0 0 0 0 0 0 0 0 4 5 2 0 5 0 0 1 5 5 5 2 0 0 0 0 0 0 0
100 100 100 100 100 100 100 100 95 92 7 95 95 100 97 18 5 2 3 3 3 0 0 0 0 1 0 0 0 1 3 2 0 4 4 20 5 70 21 5 11 22 0 0 0 0 0
100 100 100 100 100 100 100 100 100 26 100 87 61 36 14 36 4 2 2 0 2 0 0 0 0 2 0 0 0 0 0 0 0 0 0 0 5 86 72 94 91 0 0 1 1 0 0
100 100 100 100 100 100 100 100 100 100 100 100 100 39 30 74 5 4 2 2 0 0 3 0 0 0 0 0 2 5 4 0 0 0 0 2 13 100 100 100 4 0 1 1 4 0 0
100 100 100 100 100 100 100 100 100 100 100 100 100 96 92 29 5 5 5 5 5 5 5 2 0 0 0 4 5 79 6 4 1 0 2 13 90 100 100 100 95 0 59 65 55 0 6
100 100 100 100 100 100 100 100 88 100 100 100 100 100 88 7 10 88 83 8 5 5 5 4 0 1 4 12 88 80 26 2 4 3 5 2 20 85 100 100 88 22 8 96 38 0 5
100 100 100 100 100 100 100 100 100 100 91 98 100 41 44 98 100 100 97 6 5 5 5 4 2 3 5 16 18 7 88 10 57 5 89 25 54 83 86 100 72 95 100 96 45 98 63
100 100 100 100 90 92 100 100 100 99 86 95 32 100 100 100 100 100 58 8 5 35 5 5 1 5 5 35 65 82 100 95 63 61 5 53 6 8 6 4 0 1 13 37 13 79 27